[Date Prev][Date Next][Thread Prev][Thread Next] - [Date Index][Thread Index][Author Index]
2 Line ISS Keps 2-7
- Subject: [sarex] 2 Line ISS Keps 2-7
- From: "Dave Larsen PhD" <doc@xxxxxxxxxxx>
- Date: Sat, 7 Feb 2004 05:05:01 -0800
ISS
1 25544U 98067A 04038.50068979 .00014243 00000-0 13671-3 0 1446
2 25544 51.6292 271.0363 0007457 137.4975 300.5305 15.66881486297814
----
Via the sarex mailing list at AMSAT.ORG courtesy of AMSAT-NA.
To unsubscribe, send "unsubscribe sarex" to Majordomo@amsat.org
AMSAT Home